NapervilleWeather.com

Find the Weather for any City, State  
or Zipcode, or Country:

Naperville, IL Weather
Local Radar

Local Radar

Graphs, Details
Graphs and Gauges
Detailed Weather
Detailed Reports
Ajax Version (old)
Davis Summary
Davis Current Weather Graphs
Davis 24 Hour Weather History
Cumulus

CW7164 Data

Weather Underground
www.awekas.at
Automatic Weather Map System
Latest Naperville, Illinois, weather
Weather For You
Maps
Temperature
Heat Index
Windchill
Humidity
Radar
Dew Point
Wind
Visibility
Visible Satellite
Satellite
Fronts
Snow Depth
Jet Stream
Flight Rules
Forecast Maps
Temperature Forecast
Maximum Temperature Forecast
Minimum Temperature Forecast
Dewpoint Forecast
Prevalent Weather
12Hr Probability of Precip.
Sky Cover
Health Maps
UV Forecast
Air Quality
Peak Air Quality Index
Weather Station
Davis Instruments Vantage Pro2
Current Conditions [Select Refresh to Update]

Updated: 4:21am on 11/1/14

(location)
Currently:
35.5°F

Clear
Overcast

High: 36.0 °F< 
(12:00am
Low: 35.3 °F 
(2:01am)
Wind: W 0 mph
Calm
Gust: 3 mph
Today's High Wind: 13 mph (2:36am)
Humidity: 62%
Pressure: 30.40 in  (Steady
Pressure Rate: 0.008 in/hr
Dew Point: 23.8°F
Wind Chill: 35.5 °F
Heat Index (feels like): 37.5 °F
Comfort Level: Cool
Temperature Rate:  0.03°F/hr
 
5 Day Forecast
 
Sat Sun Mon Tue Wed
Clear Clear Clear Clear Clear
Partly Cloudy Partly Cloudy Mostly Cloudy Chance Rain Mostly Cloudy
46 50 59 54 61
27 36 48 39 34

Records and Normals
 
Temperature Forecast Normal Record
High 46 0 0
(0)
Low 27 0 0
(0)
 
 
Weather Advisories
No Warnings
Full Advisory Text...
Weather Map

Web Cam

Almanac
 
Sunrise:  
7:26am
Moonrise: 
2:46pm

Moon Phase:
62%

Sunset: 
5:48pm
Moonset:  
1:15am
 Star Chart...
Rainfall Totals
Hourly Rain 0.00 in
Daily Rain: 0.00 in
Monthly Rain: 0.00 in
Yearly Rain: 32.36 in
Normal Rain, month to date: 0.00 in
Normal Rain, year to date: 0.00 in
Local Weather Exchange Network
Station ID City 
(Click for Map Location)
Neighborhood 
(Click for History)
Last Update (Date & Time) Temperature
 ()
Dew
Point ()
Humidity 
(%)
Wind 
(mph)
from the Wind Gust 
(mph) 
Pressure(in) Hourly
Rain(in)
KILNAPER15 Naperville Indian Hill Near Jefferson JHS 11/01 04:04:55 35.6 25.0 65 1 NNE 7 30.37 0.00
KILNAPER21 Naperville Saybrook 11/01 04:00:15 35.2 25.0 67 4 North 11 30.40 0.00
KILNAPER25 Naperville brushhill-w 11/01 03:53:18 36.0 25.0 64 2 NNW 6 30.36 0.00
KILNAPER24 Naperville Brush Hill 11/01 04:04:57 35.7 25.0 66 3 NNE 9 30.31 0.00
KILNAPER19 Naperville Brookdale Lakes 11/01 04:05:13 35.3 26.0 67 3 West 5 30.31 0.00
KILNAPER7 Naperville NapervilleWeather.com Near Ogden and Naper Blvd 11/01 04:05:13 35.5 23.0 61 0 NNW 7 30.40 0.00
KILWARRE2 Warrenville Warrenville Neighborhood Weather 11/01 04:05:06 35.6 26.0 67 0 NNE 9 30.36 0.00
KILNAPER23 Naperville Naper Blvd at BNSF RR 11/01 04:05:06 35.0 26.0 68 1 NE 6 30.38 0.00
KILNAPER9 Naperville 75th St. / Modaff Area 11/01 04:05:12 35.6 26.0 67 0 ESE 4 30.37 0.00
KILLISLE7 Lisle Beau Monde Drive 11/01 04:00:50 35.4 24.0 64 0 North 0 30.41 0.00
KILWHEAT8 Wheaton Wheaton Sanitary District 11/01 03:54:47 36.8 27.0 68 3 NNW 8 30.38 0.00
KILWHEAT11 Wheaton Wheaton SW Orth Ct 11/01 04:05:11 37.6 25.0 61 0 NNE 2 30.45 0.00
KILLOMBA6 Wheaton Danada West 11/01 04:04:25 35.2 24.0 62 6 NNE 11 30.42 0.00
KILNAPER16 Naperville SE Naperville / NE Clow Arpt 11/01 04:05:08 35.6 25.0 66 11 North 12 30.39 0.00
KILNAPER22 Naperville Willow Ridge 11/01 03:50:59 35.2 26.0 68 2 NNW 0 30.18 0.00
KILWHEAT5 Wheaton N9ABF - West Wheaton 11/01 03:54:50 35.4 24.0 63 6 NNW 0 30.32 0.00
KILGLENE9 Glen Ellyn Valley View 11/01 03:56:50 35.2 25.0 65 3 ESE 0 30.24 0.00
KILWINFI2 Winfield Winfield Heights (SarahNet) 11/01 04:03:10 35.2 25.0 67 0 North 8 30.38 0.00
KILWOODR4 Woodridge Woodridge Neighborhood Weather 11/01 03:56:21 36.1 24.0 62 2 North 16 30.36 0.00
KILWINFI3 Winfield Fredericksburg Farm 11/01 04:05:13 34.7 25.0 67 3 NW 8 30.29 0.00
KILWHEAT10 Wheaton Wheaton College 11/01 04:00:16 34.8 24.0 65 6 North 13 30.37 0.00
KILWOODR2 Woodridge Woodridge 11/01 04:05:11 35.7 25.0 66 6 North 6 30.25 0.00
KILWOODR1 Woodridge 75th Street/ Janes Ave 11/01 04:05:09 36.3 26.0 67 4 South 7 29.55 0.00
KILBATAV5 Batavia Fermi National Accelerator Laboratory 11/01 03:57:06 35.1 25.0 66 6 NNW 11 30.34 0.00
KILBOLIN15 Bolingbrook Winding Meadows 11/01 04:05:09 35.6 22.0 57 4 NE 9 30.35 0.00
KILBOLIN20 Bolingbrook Bolingbrook - Royce Road 11/01 04:05:07 36.1 24.0 61 4 NNW 9 29.66 0.00
KILDOWNE3 Downers Grove Maple Woods West 11/01 04:05:11 36.0 29.0 76 2 East 4 30.39 0.00
KILBOLIN12 Bolingbrook UnderTheThunder HQ 11/01 04:04:51 36.0 26.0 66 5 NNE 9 30.37 0.00
KILAUROR22 Aurora Lakewood Valley 11/01 03:58:42 34.9 26.0 69 7 North 0 30.14 0.00
KILWOODR6 Woodridge Kelly Court 11/01 04:00:43 36.5 24.0 61 0 North 0 30.36 0.00
KILNAPER4 Naperville 1.1 mi.West. of Rt 59 & 103rd St. 11/01 04:04:23 35.3 22.0 59 3 North 7 30.31 0.00
KILAUROR23 Aurora Summerlin 11/01 03:51:47 35.2 25.0 66 7 NNE 0 30.19 0.00
KILGLENE7 Glen Ellyn Glen Ellyn Civic Center 11/01 03:51:07 35.7 25.0 65 10 NNW 14 30.43 0.00
KILDOWNE6 Downers Grove DGMidTown 11/01 03:59:14 34.7 25.0 68 6 NNW 0 30.24 0.00
KILDOWNE8 Downers Grove Oak Creek 11/01 03:50:35 35.4 23.0 61 3 SSE 0 30.27 0.00
KDPA Chicago DuPage Official Station 11/01 03:52:00 35.0 22.0 59 14 North --- 30.38 ---
KLOT Romeoville Official Station 11/01 03:55:00 35.0 23.0 61 13 North --- 30.35 ---
KARR Aurora Official Station 11/01 03:52:00 35.0 21.0 57 15 NNW --- 30.39 ---
KJOT Joliet Official Station 11/01 03:55:00 35.0 23.0 61 10 North --- 30.35 ---
Full Advisory Text
No Warnings

Ambient Weather and Weather Underground
 Never base important decisions on this or any weather information obtained from the Internet
Updated Automatically by Ambient Weather's Virtual Weather Station  V14.01